| time (UTC) | temp F | wind direction | speed MPH | gust MPH | rain 1hr in | rain 24hr in | rain mn in | humidity % | barometer mb |
| 20260904174132 | 95 | 146 | 3.0 | 7.0 | 0.00 | 0.00 | 0.00 | 46 | 1014.3 |
| 20260904173627 | 94 | 58 | 3.0 | 6.0 | 0.00 | 0.00 | 0.00 | 47 | 1014.3 |
| 20260904173117 | 93 | 206 | 3.0 | 11.0 | 0.00 | 0.00 | 0.00 | 48 | 1014.4 |
| 20260904172613 | 94 | 185 | 5.0 | 9.0 | 0.00 | 0.00 | 0.00 | 47 | 1014.5 |
| 20260904172112 | 94 | 207 | 4.0 | 9.0 | 0.00 | 0.00 | 0.00 | 48 | 1014.6 |
| 20260904171607 | 93 | 156 | 3.0 | 11.0 | 0.00 | 0.00 | 0.00 | 48 | 1014.7 |
| 20260904171103 | 92 | 194 | 5.0 | 9.0 | 0.00 | 0.00 | 0.00 | 51 | 1014.7 |
| 20260904170558 | 93 | 192 | 8.0 | 9.0 | 0.00 | 0.00 | 0.00 | 50 | 1014.8 |
| 20260904170055 | 91 | 239 | 4.0 | 8.0 | 0.00 | 0.00 | 0.00 | 52 | 1014.9 |
| 20260904165553 | 92 | 197 | 2.0 | 7.0 | 0.00 | 0.00 | 0.00 | 53 | 1014.9 |
| 20260904165052 | 92 | 303 | 3.0 | 9.0 | 0.00 | 0.00 | 0.00 | 52 | 1014.9 |
| 20260904164547 | 91 | 200 | 6.0 | 9.0 | 0.00 | 0.00 | 0.00 | 54 | 1014.9 |
| 20260904164043 | 90 | 196 | 3.0 | 9.0 | 0.00 | 0.00 | 0.00 | 55 | 1015.1 |
| 20260904163542 | 90 | 197 | 3.0 | 9.0 | 0.00 | 0.00 | 0.00 | 54 | 1015.1 |
| 20260904163038 | 90 | 234 | 3.0 | 8.0 | 0.00 | 0.00 | 0.00 | 54 | 1015.1 |
| 20260904162532 | 90 | 204 | 9.0 | 13.0 | 0.00 | 0.00 | 0.00 | 54 | 1015.1 |
| 20260904162028 | 90 | 128 | 5.0 | 8.0 | 0.00 | 0.00 | 0.00 | 56 | 1015.0 |
| 20260904161522 | 90 | 215 | 6.0 | 11.0 | 0.00 | 0.00 | 0.00 | 56 | 1015.1 |
| 20260904161018 | 91 | 180 | 4.0 | 7.0 | 0.00 | 0.00 | 0.00 | 55 | 1015.0 |
| 20260904160513 | 90 | 113 | 3.0 | 5.0 | 0.00 | 0.00 | 0.00 | 58 | 1015.0 |
| 20260904160009 | 88 | 234 | 1.0 | 7.0 | 0.00 | 0.00 | 0.00 | 61 | 1014.8 |
| 20260904155503 | 89 | 217 | 9.0 | 9.0 | 0.00 | 0.00 | 0.00 | 60 | 1015.1 |
| 20260904155002 | 89 | 104 | 1.0 | 8.0 | 0.00 | 0.00 | 0.00 | 60 | 1014.7 |
| 20260904154456 | 88 | 179 | 3.0 | 11.0 | 0.00 | 0.00 | 0.00 | 60 | 1015.0 |
| 20260904153951 | 88 | 242 | 3.0 | 8.0 | 0.00 | 0.00 | 0.00 | 61 | 1014.9 |
| 20260904153445 | 88 | 222 | 5.0 | 11.0 | 0.00 | 0.00 | 0.00 | 62 | 1015.0 |
| 20260904152942 | 87 | 232 | 3.0 | 5.0 | 0.00 | 0.00 | 0.00 | 65 | 1014.7 |
| 20260904152437 | 87 | 180 | 4.0 | 6.0 | 0.00 | 0.00 | 0.00 | 66 | 1014.7 |
| 20260904151936 | 87 | 241 | 3.0 | 9.0 | 0.00 | 0.00 | 0.00 | 65 | 1014.8 |
| 20260904151432 | 86 | 99 | 4.0 | 7.0 | 0.00 | 0.00 | 0.00 | 69 | 1014.7 |
| 20260904150927 | 86 | 160 | 3.0 | 7.0 | 0.00 | 0.00 | 0.00 | 71 | 1014.8 |
| 20260904150422 | 85 | 175 | 6.0 | 9.0 | 0.00 | 0.00 | 0.00 | 72 | 1014.8 |
| 20260904145919 | 84 | 239 | 2.0 | 7.0 | 0.00 | 0.00 | 0.00 | 75 | 1014.9 |
| 20260904145416 | 84 | 224 | 7.0 | 11.0 | 0.00 | 0.00 | 0.00 | 75 | 1015.0 |
| 20260904144906 | 83 | 231 | 3.0 | 8.0 | 0.00 | 0.00 | 0.00 | 77 | 1015.0 |
| 20260904144402 | 82 | 146 | 3.0 | 7.0 | 0.00 | 0.00 | 0.00 | 78 | 1014.8 |
| 20260904143857 | 83 | 94 | 4.0 | 8.0 | 0.00 | 0.00 | 0.00 | 77 | 1014.8 |
| 20260904143354 | 83 | 190 | 7.0 | 9.0 | 0.00 | 0.00 | 0.00 | 77 | 1014.8 |
| 20260904142850 | 82 | 179 | 3.0 | 7.0 | 0.00 | 0.00 | 0.00 | 79 | 1014.7 |
| 20260904142345 | 81 | 152 | 4.0 | 5.0 | 0.00 | 0.00 | 0.00 | 81 | 1014.8 |
| 20260904141845 | 81 | 199 | 3.0 | 8.0 | 0.00 | 0.00 | 0.00 | 81 | 1014.5 |
| 20260904141340 | 81 | 150 | 3.0 | 7.0 | 0.00 | 0.00 | 0.00 | 81 | 1014.6 |
| 20260904140837 | 80 | 182 | 3.0 | 5.0 | 0.00 | 0.00 | 0.00 | 82 | 1014.5 |
| 20260904140331 | 80 | 133 | 3.0 | 6.0 | 0.00 | 0.00 | 0.00 | 82 | 1014.7 |
| 20260904135830 | 80 | 171 | 3.0 | 6.0 | 0.00 | 0.00 | 0.00 | 82 | 1014.5 |
| 20260904135325 | 80 | 118 | 4.0 | 7.0 | 0.00 | 0.00 | 0.00 | 82 | 1014.5 |
| 20260904134816 | 80 | 65 | 2.0 | 6.0 | 0.00 | 0.00 | 0.00 | 83 | 1014.4 |
| 20260904134316 | 80 | 168 | 2.0 | 4.0 | 0.00 | 0.00 | 0.00 | 82 | 1014.3 |
| 20260904133815 | 80 | 195 | 3.0 | 6.0 | 0.00 | 0.00 | 0.00 | 82 | 1014.5 |
| 20260904133311 | 80 | 165 | 6.0 | 6.0 | 0.00 | 0.00 | 0.00 | 82 | 1014.3 |
| 20260904132806 | 80 | 204 | 2.0 | 6.0 | 0.00 | 0.00 | 0.00 | 81 | 1014.2 |
| 20260904132301 | 80 | 200 | 5.0 | 7.0 | 0.00 | 0.00 | 0.00 | 82 | 1014.2 |
| 20260904131800 | 80 | 63 | 5.0 | 8.0 | 0.00 | 0.00 | 0.00 | 81 | 1014.3 |
| 20260904131256 | 80 | 195 | 3.0 | 8.0 | 0.00 | 0.00 | 0.00 | 82 | 1014.2 |
| 20260904130755 | 79 | 358 | 1.0 | 4.0 | 0.00 | 0.00 | 0.00 | 84 | 1014.5 |
| 20260904130250 | 79 | 209 | 3.0 | 5.0 | 0.00 | 0.00 | 0.00 | 83 | 1014.2 |
| 20260904125745 | 80 | 180 | 3.0 | 6.0 | 0.00 | 0.00 | 0.00 | 82 | 1014.2 |
| 20260904125241 | 80 | 112 | 4.0 | 5.0 | 0.00 | 0.00 | 0.00 | 82 | 1014.1 |
| 20260904124741 | 80 | 133 | 3.0 | 4.0 | 0.00 | 0.00 | 0.00 | 82 | 1014.1 |
| 20260904124237 | 79 | 212 | 2.0 | 4.0 | 0.00 | 0.00 | 0.00 | 83 | 1014.0 |
| 20260904123738 | 78 | 105 | 3.0 | 6.0 | 0.00 | 0.00 | 0.00 | 84 | 1013.9 |
| 20260904123233 | 78 | 238 | 2.0 | 3.0 | 0.00 | 0.00 | 0.00 | 85 | 1013.8 |
| 20260904122728 | 77 | 148 | 0.0 | 2.0 | 0.00 | 0.00 | 0.00 | 86 | 1013.8 |
| 20260904122227 | 77 | 333 | 0.0 | 2.0 | 0.00 | 0.00 | 0.00 | 87 | 1013.5 |
| 20260904121723 | 77 | 139 | 2.0 | 4.0 | 0.00 | 0.00 | 0.00 | 87 | 1013.5 |
| 20260904121219 | 77 | 132 | 2.0 | 4.0 | 0.00 | 0.00 | 0.00 | 87 | 1013.7 |
| 20260904120715 | 77 | 167 | 0.0 | 3.0 | 0.00 | 0.00 | 0.00 | 86 | 1013.5 |
| 20260904120211 | 77 | 150 | 2.0 | 4.0 | 0.00 | 0.00 | 0.00 | 86 | 1013.7 |
| 20260904115706 | 77 | 166 | 3.0 | 3.0 | 0.00 | 0.00 | 0.00 | 86 | 1013.6 |
| 20260904115206 | 77 | 246 | 0.0 | 2.0 | 0.00 | 0.00 | 0.00 | 86 | 1013.5 |
| 20260904114701 | 77 | 126 | 3.0 | 5.0 | 0.00 | 0.00 | 0.00 | 86 | 1013.5 |
| 20260904114200 | 77 | 109 | 2.0 | 3.0 | 0.00 | 0.00 | 0.00 | 86 | 1013.5 |
| 20260904113655 | 77 | 206 | 2.0 | 4.0 | 0.00 | 0.00 | 0.00 | 86 | 1013.5 |
| 20260904113154 | 77 | 56 | 1.0 | 4.0 | 0.00 | 0.00 | 0.00 | 86 | 1013.4 |
| 20260904112650 | 77 | 91 | 0.0 | 2.0 | 0.00 | 0.00 | 0.00 | 86 | 1013.5 |
| 20260904112146 | 78 | 121 | 2.0 | 4.0 | 0.00 | 0.00 | 0.00 | 86 | 1013.3 |
| 20260904111641 | 78 | 104 | 2.0 | 3.0 | 0.00 | 0.00 | 0.00 | 86 | 1013.4 |
| 20260904111137 | 78 | 208 | 2.0 | 4.0 | 0.00 | 0.00 | 0.00 | 86 | 1013.3 |
| 20260904110632 | 78 | 171 | 0.0 | 3.0 | 0.00 | 0.00 | 0.00 | 86 | 1013.5 |
| 20260904110132 | 78 | 185 | 3.0 | 4.0 | 0.00 | 0.00 | 0.00 | 86 | 1013.4 |
| 20260904105632 | 78 | 130 | 0.0 | 2.0 | 0.00 | 0.00 | 0.00 | 85 | 1013.5 |
| 20260904105127 | 78 | 127 | 0.0 | 3.0 | 0.00 | 0.00 | 0.00 | 85 | 1013.4 |
| 20260904104622 | 78 | 196 | 5.0 | 5.0 | 0.00 | 0.00 | 0.00 | 85 | 1013.2 |
| 20260904104117 | 78 | 174 | 2.0 | 6.0 | 0.00 | 0.00 | 0.00 | 85 | 1013.1 |
| 20260904103614 | 78 | 147 | 3.0 | 5.0 | 0.00 | 0.00 | 0.00 | 85 | 1013.3 |
| 20260904103109 | 78 | 189 | 2.0 | 3.0 | 0.00 | 0.00 | 0.00 | 85 | 1013.3 |
| 20260904102605 | 78 | 180 | 2.0 | 4.0 | 0.00 | 0.00 | 0.00 | 85 | 1013.3 |
| 20260904102100 | 78 | 78 | 1.0 | 3.0 | 0.00 | 0.00 | 0.00 | 85 | 1013.2 |
| 20260904101557 | 78 | 180 | 3.0 | 3.0 | 0.00 | 0.00 | 0.00 | 85 | 1013.2 |
| 20260904101052 | 78 | 41 | 0.0 | 3.0 | 0.00 | 0.00 | 0.00 | 84 | 1013.1 |
| 20260904100548 | 78 | 154 | 4.0 | 7.0 | 0.00 | 0.00 | 0.00 | 84 | 1013.2 |
| 20260904100042 | 78 | 319 | 0.0 | 4.0 | 0.00 | 0.00 | 0.00 | 84 | 1013.3 |
| 20260904095537 | 78 | 176 | 4.0 | 5.0 | 0.00 | 0.00 | 0.00 | 84 | 1013.1 |
| 20260904095033 | 78 | 185 | 5.0 | 5.0 | 0.00 | 0.00 | 0.00 | 84 | 1013.1 |
| 20260904094527 | 78 | 159 | 3.0 | 5.0 | 0.00 | 0.00 | 0.00 | 84 | 1012.9 |
| 20260904094022 | 78 | 157 | 3.0 | 5.0 | 0.00 | 0.00 | 0.00 | 84 | 1013.1 |
| 20260904093514 | 78 | 188 | 6.0 | 6.0 | 0.00 | 0.00 | 0.00 | 84 | 1013.1 |
| 20260904093009 | 78 | 129 | 2.0 | 5.0 | 0.00 | 0.00 | 0.00 | 84 | 1013.1 |
| 20260904092504 | 78 | 176 | 3.0 | 6.0 | 0.00 | 0.00 | 0.00 | 84 | 1013.1 |
| 20260904092000 | 78 | 252 | 3.0 | 6.0 | 0.00 | 0.00 | 0.00 | 84 | 1013.1 |
| 20260904091456 | 78 | 250 | 2.0 | 5.0 | 0.00 | 0.00 | 0.00 | 83 | 1013.1 |
| 20260904090950 | 78 | 202 | 2.0 | 5.0 | 0.00 | 0.00 | 0.00 | 83 | 1013.0 |
| 20260904090446 | 78 | 115 | 0.0 | 3.0 | 0.00 | 0.00 | 0.00 | 83 | 1013.2 |
| 20260904085940 | 78 | 98 | 2.0 | 4.0 | 0.00 | 0.00 | 0.00 | 83 | 1012.9 |
| 20260904085436 | 78 | 188 | 3.0 | 4.0 | 0.00 | 0.00 | 0.00 | 83 | 1012.9 |
| 20260904084931 | 78 | 267 | 1.0 | 4.0 | 0.00 | 0.00 | 0.00 | 82 | 1013.1 |
| 20260904084427 | 78 | 65 | 0.0 | 4.0 | 0.00 | 0.00 | 0.00 | 82 | 1013.1 |
| 20260904083922 | 78 | 230 | 1.0 | 5.0 | 0.00 | 0.00 | 0.00 | 82 | 1013.0 |
| 20260904083419 | 78 | 112 | 4.0 | 6.0 | 0.00 | 0.00 | 0.00 | 82 | 1013.0 |
| 20260904082914 | 78 | 109 | 1.0 | 5.0 | 0.00 | 0.00 | 0.00 | 81 | 1013.1 |
| 20260904082414 | 78 | 185 | 3.0 | 5.0 | 0.00 | 0.00 | 0.00 | 81 | 1012.9 |
| 20260904081909 | 78 | 182 | 4.0 | 4.0 | 0.00 | 0.00 | 0.00 | 81 | 1012.8 |
| 20260904081404 | 78 | 170 | 3.0 | 7.0 | 0.00 | 0.00 | 0.00 | 81 | 1012.9 |
| 20260904080901 | 78 | 267 | 2.0 | 5.0 | 0.00 | 0.00 | 0.00 | 80 | 1013.1 |
| 20260904080356 | 78 | 164 | 2.0 | 5.0 | 0.00 | 0.00 | 0.00 | 80 | 1013.3 |
| 20260904075852 | 78 | 197 | 5.0 | 6.0 | 0.00 | 0.00 | 0.00 | 80 | 1013.1 |
| 20260904075347 | 78 | 160 | 2.0 | 5.0 | 0.00 | 0.00 | 0.00 | 80 | 1013.1 |
| 20260904074845 | 78 | 153 | 3.0 | 5.0 | 0.00 | 0.00 | 0.00 | 79 | 1013.0 |
| 20260904074341 | 78 | 198 | 2.0 | 4.0 | 0.00 | 0.00 | 0.00 | 79 | 1013.0 |
| 20260904073836 | 79 | 189 | 2.0 | 4.0 | 0.00 | 0.00 | 0.00 | 79 | 1013.0 |
| 20260904073332 | 79 | 169 | 3.0 | 5.0 | 0.00 | 0.00 | 0.00 | 78 | 1013.1 |
| 20260904072828 | 79 | 200 | 2.0 | 6.0 | 0.00 | 0.00 | 0.00 | 78 | 1013.1 |
| 20260904072327 | 79 | 94 | 1.0 | 6.0 | 0.00 | 0.00 | 0.00 | 78 | 1013.1 |
| 20260904071823 | 79 | 186 | 2.0 | 5.0 | 0.00 | 0.00 | 0.00 | 78 | 1013.0 |
| 20260904071318 | 79 | 204 | 4.0 | 10.0 | 0.00 | 0.00 | 0.00 | 78 | 1013.1 |
| 20260904070813 | 79 | 138 | 4.0 | 5.0 | 0.00 | 0.00 | 0.00 | 77 | 1013.1 |
| 20260904070311 | 79 | 184 | 3.0 | 6.0 | 0.00 | 0.00 | 0.00 | 77 | 1013.2 |
| 20260904065807 | 79 | 174 | 2.0 | 6.0 | 0.00 | 0.00 | 0.00 | 76 | 1013.2 |
| 20260904065306 | 79 | 163 | 2.0 | 6.0 | 0.00 | 0.00 | 0.00 | 76 | 1013.2 |
| 20260904064802 | 79 | 180 | 7.0 | 7.0 | 0.00 | 0.00 | 0.00 | 76 | 1013.2 |
| 20260904064258 | 79 | 143 | 3.0 | 9.0 | 0.00 | 0.00 | 0.00 | 75 | 1013.3 |
| 20260904063754 | 79 | 193 | 5.0 | 10.0 | 0.00 | 0.00 | 0.00 | 75 | 1013.4 |
| 20260904063250 | 79 | 208 | 0.0 | 10.0 | 0.00 | 0.00 | 0.00 | 74 | 1013.2 |
| 20260904062745 | 79 | 256 | 0.0 | 3.0 | 0.00 | 0.00 | 0.00 | 73 | 1013.3 |
| 20260904062242 | 80 | 162 | 1.0 | 7.0 | 0.00 | 0.00 | 0.00 | 72 | 1013.4 |
| 20260904061737 | 80 | 118 | 4.0 | 5.0 | 0.00 | 0.00 | 0.00 | 72 | 1013.3 |
| 20260904061233 | 80 | 196 | 2.0 | 6.0 | 0.00 | 0.00 | 0.00 | 72 | 1013.3 |
| 20260904060730 | 80 | 191 | 4.0 | 6.0 | 0.00 | 0.00 | 0.00 | 71 | 1013.3 |
| 20260904060225 | 80 | 164 | 3.0 | 7.0 | 0.00 | 0.00 | 0.00 | 71 | 1013.4 |
| 20260904055720 | 80 | 148 | 1.0 | 4.0 | 0.00 | 0.00 | 0.00 | 71 | 1013.4 |
| 20260904055214 | 80 | 171 | 4.0 | 6.0 | 0.00 | 0.00 | 0.00 | 71 | 1013.4 |
| 20260904054711 | 80 | 175 | 3.0 | 5.0 | 0.00 | 0.00 | 0.00 | 71 | 1013.2 |
| 20260904054207 | 80 | 33 | 0.0 | 3.0 | 0.00 | 0.00 | 0.00 | 70 | 1013.5 |
| 20260904053702 | 80 | 189 | 3.0 | 4.0 | 0.00 | 0.00 | 0.00 | 70 | 1013.4 |
| 20260904053201 | 80 | 189 | 5.0 | 5.0 | 0.00 | 0.00 | 0.00 | 69 | 1013.2 |
| 20260904052658 | 80 | 207 | 2.0 | 5.0 | 0.00 | 0.00 | 0.00 | 69 | 1013.3 |
| 20260904052154 | 80 | 102 | 2.0 | 6.0 | 0.00 | 0.00 | 0.00 | 69 | 1013.2 |
| 20260904051644 | 80 | 188 | 5.0 | 5.0 | 0.00 | 0.00 | 0.00 | 68 | 1013.3 |
| 20260904051139 | 80 | 196 | 3.0 | 4.0 | 0.00 | 0.00 | 0.00 | 68 | 1013.3 |
| 20260904050634 | 81 | 125 | 6.0 | 6.0 | 0.00 | 0.00 | 0.00 | 68 | 1013.2 |
| 20260904050130 | 81 | 113 | 5.0 | 6.0 | 0.00 | 0.00 | 0.00 | 67 | 1013.3 |
| 20260904045624 | 81 | 184 | 3.0 | 6.0 | 0.00 | 0.00 | 0.00 | 67 | 1013.3 |
| 20260904045119 | 81 | 144 | 2.0 | 4.0 | 0.00 | 0.00 | 0.00 | 66 | 1013.0 |
| 20260904044614 | 81 | 162 | 7.0 | 10.0 | 0.00 | 0.00 | 0.00 | 66 | 1013.1 |
| 20260904044111 | 81 | 305 | 2.0 | 3.0 | 0.00 | 0.00 | 0.00 | 66 | 1013.2 |
| 20260904043607 | 81 | 135 | 4.0 | 4.0 | 0.00 | 0.00 | 0.00 | 66 | 1013.1 |
| 20260904043103 | 81 | 136 | 2.0 | 9.0 | 0.00 | 0.00 | 0.00 | 65 | 1013.2 |
| 20260904042559 | 82 | 126 | 1.0 | 5.0 | 0.00 | 0.00 | 0.00 | 65 | 1013.3 |
| 20260904042054 | 82 | 202 | 2.0 | 5.0 | 0.00 | 0.00 | 0.00 | 66 | 1013.2 |
| 20260904041550 | 82 | 172 | 3.0 | 4.0 | 0.00 | 0.00 | 0.00 | 66 | 1013.2 |
| 20260904041046 | 82 | 194 | 2.0 | 6.0 | 0.00 | 0.00 | 0.00 | 65 | 1013.2 |
| 20260904040546 | 82 | 199 | 4.0 | 8.0 | 0.00 | 0.00 | 0.00 | 65 | 1013.4 |
| 20260904040043 | 82 | 156 | 2.0 | 6.0 | 0.00 | 0.00 | 0.00 | 65 | 1012.9 |
| 20260904035543 | 82 | 215 | 3.0 | 6.0 | 0.00 | 0.00 | 0.00 | 65 | 1013.2 |
| 20260904035037 | 83 | 104 | 3.0 | 5.0 | 0.00 | 0.00 | 0.00 | 65 | 1013.1 |
| 20260904034532 | 83 | 146 | 2.0 | 5.0 | 0.00 | 0.00 | 0.00 | 64 | 1013.1 |
| 20260904034027 | 83 | 116 | 2.0 | 11.0 | 0.00 | 0.00 | 0.00 | 65 | 1013.3 |
| 20260904033523 | 83 | 215 | 3.0 | 5.0 | 0.00 | 0.00 | 0.00 | 66 | 1013.3 |
| 20260904033021 | 83 | 161 | 2.0 | 6.0 | 0.00 | 0.00 | 0.00 | 67 | 1013.1 |
| 20260904032515 | 83 | 229 | 3.0 | 6.0 | 0.00 | 0.00 | 0.00 | 67 | 1013.2 |
| 20260904032014 | 83 | 175 | 2.0 | 6.0 | 0.00 | 0.00 | 0.00 | 66 | 1013.2 |
| 20260904031509 | 83 | 192 | 3.0 | 10.0 | 0.00 | 0.00 | 0.00 | 65 | 1013.3 |
| 20260904031005 | 84 | 136 | 4.0 | 9.0 | 0.00 | 0.00 | 0.00 | 65 | 1013.3 |
| 20260904030501 | 84 | 184 | 6.0 | 9.0 | 0.00 | 0.00 | 0.00 | 66 | 1013.2 |
| 20260904025955 | 84 | 116 | 3.0 | 7.0 | 0.00 | 0.00 | 0.00 | 65 | 1013.1 |
| 20260904025451 | 84 | 202 | 4.0 | 7.0 | 0.00 | 0.00 | 0.00 | 65 | 1013.0 |
| 20260904024951 | 84 | 194 | 4.0 | 5.0 | 0.00 | 0.00 | 0.00 | 64 | 1012.8 |
| 20260904024447 | 84 | 171 | 4.0 | 5.0 | 0.00 | 0.00 | 0.00 | 63 | 1012.9 |
| 20260904023943 | 84 | 151 | 3.0 | 7.0 | 0.00 | 0.00 | 0.00 | 63 | 1012.7 |
| 20260904023438 | 84 | 258 | 0.0 | 5.0 | 0.00 | 0.00 | 0.00 | 62 | 1012.8 |
| 20260904022938 | 84 | 143 | 3.0 | 8.0 | 0.00 | 0.00 | 0.00 | 62 | 1012.7 |
| 20260904022435 | 84 | 197 | 3.0 | 7.0 | 0.00 | 0.00 | 0.00 | 61 | 1012.7 |
| 20260904021930 | 84 | 207 | 4.0 | 5.0 | 0.00 | 0.00 | 0.00 | 61 | 1012.6 |
| 20260904021427 | 84 | 156 | 5.0 | 10.0 | 0.00 | 0.00 | 0.00 | 62 | 1012.5 |
| 20260904020927 | 84 | 15 | 3.0 | 7.0 | 0.00 | 0.00 | 0.00 | 63 | 1012.4 |
| 20260904020422 | 85 | 101 | 2.0 | 7.0 | 0.00 | 0.00 | 0.00 | 63 | 1012.4 |
| 20260904015920 | 85 | 215 | 3.0 | 8.0 | 0.00 | 0.00 | 0.00 | 63 | 1012.2 |
| 20260904015416 | 85 | 168 | 4.0 | 7.0 | 0.00 | 0.00 | 0.00 | 63 | 1012.1 |
| 20260904014914 | 85 | 199 | 4.0 | 5.0 | 0.00 | 0.00 | 0.00 | 63 | 1012.1 |
| 20260904014410 | 85 | 181 | 5.0 | 10.0 | 0.00 | 0.00 | 0.00 | 63 | 1011.9 |
| 20260904013905 | 85 | 134 | 4.0 | 11.0 | 0.00 | 0.00 | 0.00 | 63 | 1012.0 |
| 20260904013401 | 85 | 74 | 2.0 | 7.0 | 0.00 | 0.00 | 0.00 | 63 | 1011.8 |
| 20260904012857 | 86 | 120 | 3.0 | 7.0 | 0.00 | 0.00 | 0.00 | 63 | 1011.7 |
| 20260904012351 | 86 | 204 | 3.0 | 5.0 | 0.00 | 0.00 | 0.00 | 63 | 1011.6 |
| 20260904011851 | 86 | 120 | 6.0 | 13.0 | 0.00 | 0.00 | 0.00 | 62 | 1011.6 |
| 20260904011346 | 86 | 164 | 2.0 | 11.0 | 0.00 | 0.00 | 0.00 | 62 | 1011.6 |
| 20260904010841 | 86 | 112 | 4.0 | 6.0 | 0.00 | 0.00 | 0.00 | 62 | 1011.7 |
| 20260904010338 | 86 | 208 | 2.0 | 8.0 | 0.00 | 0.00 | 0.00 | 62 | 1011.5 |
| 20260904005832 | 86 | 139 | 2.0 | 8.0 | 0.00 | 0.00 | 0.00 | 62 | 1011.5 |
| 20260904005328 | 87 | 167 | 3.0 | 6.0 | 0.00 | 0.00 | 0.00 | 61 | 1011.3 |
| 20260904004823 | 87 | 111 | 3.0 | 12.0 | 0.00 | 0.00 | 0.00 | 60 | 1011.3 |
| 20260904004319 | 87 | 248 | 2.0 | 5.0 | 0.00 | 0.00 | 0.00 | 59 | 1011.5 |
| 20260904003815 | 88 | 160 | 2.0 | 8.0 | 0.00 | 0.00 | 0.00 | 58 | 1011.3 |
| 20260904003311 | 88 | 197 | 2.0 | 8.0 | 0.00 | 0.00 | 0.00 | 58 | 1011.2 |
| 20260904002806 | 88 | 150 | 2.0 | 7.0 | 0.00 | 0.00 | 0.00 | 57 | 1011.3 |
| 20260904002306 | 88 | 185 | 6.0 | 8.0 | 0.00 | 0.00 | 0.00 | 57 | 1011.3 |
| 20260904001801 | 88 | 147 | 3.0 | 7.0 | 0.00 | 0.00 | 0.00 | 58 | 1011.3 |
| 20260904001255 | 88 | 87 | 2.0 | 4.0 | 0.00 | 0.00 | 0.00 | 58 | 1011.1 |
| 20260904000751 | 88 | 217 | 3.0 | 6.0 | 0.00 | 0.00 | 0.00 | 58 | 1011.2 |
| 20260904000248 | 88 | 176 | 3.0 | 9.0 | 0.00 | 0.00 | 0.00 | 57 | 1011.1 |
| 20260903235744 | 88 | 105 | 1.0 | 11.0 | 0.00 | 0.00 | 0.00 | 57 | 1011.0 |
| 20260903235242 | 89 | 127 | 1.0 | 7.0 | 0.00 | 0.00 | 0.00 | 57 | 1011.0 |
| 20260903234740 | 89 | 107 | 3.0 | 6.0 | 0.00 | 0.00 | 0.00 | 56 | 1010.9 |
| 20260903234237 | 89 | 137 | 0.0 | 7.0 | 0.00 | 0.00 | 0.00 | 56 | 1010.9 |
| 20260903233733 | 90 | 78 | 3.0 | 8.0 | 0.00 | 0.00 | 0.00 | 56 | 1011.0 |
| 20260903233229 | 90 | 166 | 3.0 | 6.0 | 0.00 | 0.00 | 0.00 | 55 | 1011.1 |
| 20260903232727 | 91 | 96 | 3.0 | 6.0 | 0.00 | 0.00 | 0.00 | 54 | 1010.9 |
| 20260903232224 | 92 | 149 | 2.0 | 7.0 | 0.00 | 0.00 | 0.00 | 53 | 1011.1 |
| 20260903231722 | 92 | 196 | 4.0 | 6.0 | 0.00 | 0.00 | 0.00 | 53 | 1010.8 |
| 20260903231218 | 92 | 87 | 4.0 | 7.0 | 0.00 | 0.00 | 0.00 | 54 | 1010.8 |
| 20260903230713 | 92 | 176 | 2.0 | 6.0 | 0.00 | 0.00 | 0.00 | 54 | 1010.7 |
| 20260903230208 | 91 | 112 | 7.0 | 11.0 | 0.00 | 0.00 | 0.00 | 54 | 1010.8 |
| 20260903225704 | 92 | 94 | 3.0 | 8.0 | 0.00 | 0.00 | 0.00 | 53 | 1010.8 |
| 20260903225201 | 91 | 116 | 3.0 | 10.0 | 0.00 | 0.00 | 0.00 | 54 | 1010.9 |
| 20260903224656 | 91 | 123 | 7.0 | 9.0 | 0.00 | 0.00 | 0.00 | 54 | 1010.8 |
| 20260903224152 | 91 | 99 | 7.0 | 11.0 | 0.00 | 0.00 | 0.00 | 55 | 1011.0 |
| 20260903223647 | 90 | 147 | 8.0 | 10.0 | 0.00 | 0.00 | 0.00 | 56 | 1010.9 |
| 20260903223145 | 91 | 98 | 3.0 | 7.0 | 0.00 | 0.00 | 0.00 | 56 | 1010.7 |
| 20260903222640 | 91 | 241 | 5.0 | 6.0 | 0.00 | 0.00 | 0.00 | 56 | 1011.0 |
| 20260903222139 | 90 | 130 | 3.0 | 10.0 | 0.00 | 0.00 | 0.00 | 56 | 1010.8 |
| 20260903221634 | 90 | 141 | 3.0 | 10.0 | 0.00 | 0.00 | 0.00 | 56 | 1010.7 |
| 20260903221132 | 91 | 46 | 2.0 | 8.0 | 0.00 | 0.00 | 0.00 | 55 | 1010.9 |
| 20260903220627 | 91 | 119 | 3.0 | 11.0 | 0.00 | 0.00 | 0.00 | 56 | 1010.9 |
| 20260903220127 | 91 | 118 | 5.0 | 10.0 | 0.00 | 0.00 | 0.00 | 55 | 1011.0 |
| 20260903215626 | 91 | 152 | 4.0 | 6.0 | 0.00 | 0.00 | 0.00 | 55 | 1010.8 |
| 20260903215120 | 91 | 146 | 6.0 | 14.0 | 0.00 | 0.00 | 0.00 | 55 | 1011.0 |
| 20260903214619 | 91 | 135 | 3.0 | 6.0 | 0.00 | 0.00 | 0.00 | 55 | 1011.0 |
| 20260903214115 | 91 | 87 | 5.0 | 8.0 | 0.00 | 0.00 | 0.00 | 55 | 1011.3 |
| 20260903213609 | 91 | 221 | 3.0 | 6.0 | 0.00 | 0.00 | 0.00 | 55 | 1011.0 |
| 20260903213105 | 91 | 142 | 5.0 | 12.0 | 0.00 | 0.00 | 0.00 | 55 | 1011.1 |
| 20260903212601 | 93 | 123 | 0.0 | 10.0 | 0.00 | 0.00 | 0.00 | 55 | 1011.0 |
| 20260903212056 | 93 | 136 | 4.0 | 7.0 | 0.00 | 0.00 | 0.00 | 54 | 1011.0 |
| 20260903211551 | 93 | 160 | 3.0 | 8.0 | 0.00 | 0.00 | 0.00 | 54 | 1011.1 |
| 20260903211048 | 91 | 179 | 5.0 | 9.0 | 0.00 | 0.00 | 0.00 | 56 | 1011.1 |
| 20260903210543 | 91 | 82 | 5.0 | 8.0 | 0.00 | 0.00 | 0.00 | 57 | 1011.5 |
| 20260903210038 | 91 | 94 | 2.0 | 11.0 | 0.00 | 0.00 | 0.00 | 57 | 1011.6 |
| 20260903205531 | 92 | 132 | 7.0 | 9.0 | 0.00 | 0.00 | 0.00 | 55 | 1011.7 |
| 20260903205026 | 91 | 122 | 9.0 | 12.0 | 0.00 | 0.00 | 0.00 | 56 | 1011.5 |
| 20260903204522 | 91 | 152 | 7.0 | 10.0 | 0.00 | 0.00 | 0.00 | 56 | 1011.7 |
| 20260903204017 | 92 | 113 | 7.0 | 13.0 | 0.00 | 0.00 | 0.00 | 55 | 1011.8 |
| 20260903203513 | 91 | 120 | 2.0 | 10.0 | 0.00 | 0.00 | 0.00 | 57 | 1011.7 |
| 20260903203012 | 92 | 99 | 6.0 | 10.0 | 0.00 | 0.00 | 0.00 | 56 | 1011.8 |
| 20260903202509 | 91 | 185 | 9.0 | 11.0 | 0.00 | 0.00 | 0.00 | 57 | 1011.8 |
| 20260903202004 | 91 | 127 | 2.0 | 8.0 | 0.00 | 0.00 | 0.00 | 58 | 1012.0 |
| 20260903201458 | 92 | 238 | 2.0 | 9.0 | 0.00 | 0.00 | 0.00 | 56 | 1012.2 |
| 20260903200957 | 91 | 169 | 3.0 | 9.0 | 0.00 | 0.00 | 0.00 | 57 | 1012.1 |
| 20260903200453 | 91 | 128 | 5.0 | 8.0 | 0.00 | 0.00 | 0.00 | 58 | 1012.0 |
| 20260903195947 | 89 | 222 | 3.0 | 10.0 | 0.00 | 0.00 | 0.00 | 60 | 1012.2 |
| 20260903195443 | 90 | 230 | 6.0 | 9.0 | 0.00 | 0.00 | 0.00 | 60 | 1012.0 |
| 20260903194938 | 89 | 136 | 4.0 | 10.0 | 0.00 | 0.00 | 0.00 | 61 | 1012.1 |
| 20260903194433 | 89 | 85 | 4.0 | 10.0 | 0.00 | 0.00 | 0.00 | 62 | 1012.1 |
| 20260903193928 | 88 | 131 | 0.0 | 11.0 | 0.00 | 0.00 | 0.00 | 64 | 1012.2 |
| 20260903193425 | 87 | 180 | 7.0 | 12.0 | 0.00 | 0.00 | 0.00 | 65 | 1012.3 |
| 20260903192920 | 87 | 132 | 4.0 | 8.0 | 0.00 | 0.00 | 0.00 | 66 | 1012.5 |
| 20260903192416 | 87 | 164 | 5.0 | 8.0 | 0.00 | 0.00 | 0.00 | 66 | 1012.5 |
| 20260903191912 | 87 | 219 | 5.0 | 8.0 | 0.00 | 0.00 | 0.00 | 66 | 1012.4 |
| 20260903191408 | 87 | 185 | 8.0 | 9.0 | 0.00 | 0.00 | 0.00 | 66 | 1012.5 |
| 20260903190907 | 86 | 61 | 4.0 | 9.0 | 0.00 | 0.00 | 0.00 | 67 | 1012.8 |
| 20260903190401 | 87 | 193 | 11.0 | 13.0 | 0.00 | 0.00 | 0.00 | 66 | 1012.6 |
| 20260903185900 | 87 | 106 | 5.0 | 8.0 | 0.00 | 0.00 | 0.00 | 66 | 1012.8 |
| 20260903185355 | 88 | 199 | 3.0 | 8.0 | 0.00 | 0.00 | 0.00 | 65 | 1012.5 |
| 20260903184851 | 88 | 132 | 5.0 | 9.0 | 0.00 | 0.00 | 0.00 | 64 | 1012.8 |
| 20260903184349 | 88 | 114 | 2.0 | 9.0 | 0.00 | 0.00 | 0.00 | 64 | 1012.8 |
| 20260903183843 | 88 | 143 | 4.0 | 11.0 | 0.00 | 0.00 | 0.00 | 64 | 1012.8 |
| 20260903183338 | 88 | 93 | 5.0 | 11.0 | 0.00 | 0.00 | 0.00 | 65 | 1012.9 |
| 20260903182837 | 89 | 132 | 6.0 | 10.0 | 0.00 | 0.00 | 0.00 | 64 | 1012.8 |
| 20260903182336 | 90 | 137 | 7.0 | 9.0 | 0.00 | 0.00 | 0.00 | 62 | 1013.0 |
| 20260903181831 | 89 | 190 | 3.0 | 14.0 | 0.00 | 0.00 | 0.00 | 64 | 1013.0 |
| 20260903181326 | 89 | 180 | 6.0 | 12.0 | 0.00 | 0.00 | 0.00 | 64 | 1013.2 |
| 20260903180825 | 90 | 105 | 6.0 | 8.0 | 0.00 | 0.00 | 0.00 | 62 | 1013.3 |
| 20260903180320 | 89 | 227 | 3.0 | 9.0 | 0.00 | 0.00 | 0.00 | 65 | 1013.3 |
| 20260903175819 | 89 | 169 | 4.0 | 9.0 | 0.00 | 0.00 | 0.00 | 63 | 1013.3 |
| 20260903175319 | 89 | 184 | 3.0 | 9.0 | 0.00 | 0.00 | 0.00 | 64 | 1013.4 |
| 20260903174813 | 89 | 186 | 2.0 | 8.0 | 0.00 | 0.00 | 0.00 | 64 | 1013.3 |